Home   Weather   El Monte   Past weeks
Flag for USA

Past Weather in El Monte, California, USA — Yesterday and Last 2 Weeks

Now
54 °F

Light rain. Cloudy.


Feels Like: 52 °F
Forecast: 54 / 51 °F
Wind: 8 mph from East

Location: Fullerton Municipal Airport

Current Time: Apr 9, 2020 at 10:41:51 am

Latest Report: Apr 9, 2020 at 9:53 am


Visibility: 7 mi

Pressure: 30.13 "Hg

Humidity: 80%

Dew Point: 48 °F

Location of El MonteLocation

Past Weather in El Monte — Graph

°F

El Monte Temperature Yesterday

Maximum temperature yesterday: 62 °F (at 2:53 pm)
Minimum temperature yesterday: 52 °F (at 4:53 am)
Average temperature yesterday: 56 °F

High & Low Weather Summary for the Past Weeks

 TemperatureHumidityPressure
High77 °F (Mar 31, 2:53 pm)90% (Apr 1, 5:34 am)30.24 "Hg (Apr 1, 5:34 am)
Low44 °F (Mar 27, 5:53 am)28% (Mar 26, 12:53 pm)29.82 "Hg (Apr 1, 3:53 pm)
Average59 °F67%29.98 "Hg
* Reported Mar 25 8:53 am — Apr 9 8:53 am, El Monte. Weather by CustomWeather, © 2020

Note: Actual official high and low records may vary slightly from our data, if they occured in-between our weather recording intervals... More about our weather records

El Monte Weather History for the Previous 24 Hours

Scroll right to see more
 ConditionsComfort  
Time TempWeatherWind HumidityBarometerVisibility
8:53 am
Thu, Apr 9
54 °FLight rain. More clouds than sun.8 mph77%30.12 "Hg10 mi
7:53 am53 °FLight rain. Overcast.8 mph80%30.11 "Hg10 mi
6:53 am53 °FLight rain. More clouds than sun.8 mph77%30.10 "Hg10 mi
5:53 am53 °FMostly cloudy.6 mph80%30.09 "Hg10 mi
5:30 am53 °FMostly cloudy.6 mph80%30.09 "Hg10 mi
4:53 am53 °FMostly cloudy.7 mph77%30.08 "Hg10 mi
4:17 am52 °FOvercast.7 mph83%30.08 "Hg10 mi
3:53 am53 °FLight rain. Mostly cloudy.6 mph80%30.08 "Hg8 mi
3:31 am52 °FLight rain. Overcast.5 mph80%30.09 "Hg9 mi
3:18 am52 °FLight rain. Mostly cloudy.5 mph80%30.09 "Hg6 mi
2:53 am53 °FLight rain. Overcast.5 mph74%30.08 "Hg10 mi
1:53 am53 °FLight rain. Mostly cloudy.6 mph74%30.09 "Hg10 mi
12:53 am52 °FLight rain. Mostly cloudy.7 mph83%30.10 "Hg7 mi
11:53 pm
Wed, Apr 8
54 °FMostly cloudy.3 mph72%30.10 "Hg10 mi
10:53 pm56 °FMostly cloudy.8 mph60%30.10 "Hg10 mi
9:53 pm57 °FMostly cloudy.3 mph64%30.09 "Hg10 mi
8:53 pm57 °FPassing clouds.3 mph58%30.08 "Hg10 mi
7:53 pm57 °FClear.6 mph60%30.06 "Hg10 mi
6:53 pm58 °FSunny.5 mph58%30.04 "Hg10 mi
5:53 pm59 °FSunny.7 mph54%30.02 "Hg10 mi
4:53 pm61 °FPassing clouds.10 mph54%30.01 "Hg10 mi
3:53 pm62 °FPartly sunny.9 mph50%30.00 "Hg10 mi
2:53 pm62 °FScattered clouds.12 mph54%30.01 "Hg10 mi
1:53 pm59 °FMore clouds than sun.7 mph62%30.02 "Hg10 mi
12:53 pm58 °FBroken clouds.6 mph67%30.02 "Hg10 mi
11:53 am58 °FBroken clouds.No wind65%30.02 "Hg5 mi
10:53 am53 °FRain. Mostly cloudy.5 mph74%30.01 "Hg5 mi
Weather by CustomWeather, © 2020

See weather overview

Advertising